Theta_e
301 301 301 301 301 301 301 302 303 303 305 307 308 311 312 311 309 307 304 304 306 307 306 305 305 304 303 305 305 305 305 305 304 304 304 303 304 304 304 305 305 304 304 304 303 303 303 303 302 301 301 300 299 299 299 299 299 298 298 299 300 299 298 300 301 298 297 297 296 296 297 296 296 295 293 295 295 294 295 295 296 297 297 296 294 293 294
301 301 301 301 301 301 302 302 303 304 304 307 310 312 311 309 309 308 306 306 309 310 307 305 305 304 304 304 305 305 304 304 304 304 303 303 303 303 303 304 304 303 303 303 303 303 303 302 301 301 301 300 300 300 299 299 299 298 298 298 299 300 298 298 299 298 298 298 297 297 297 296 296 295 293 294 294 294 295 294 295 297 295 291 291 292 293
301 301 301 301 302 301 302 302 303 303 303 304 309 312 311 310 309 307 306 306 308 310 307 305 305 305 306 306 306 305 303 303 304 303 303 302 302 302 302 302 303 303 303 303 302 302 302 301 300 299 299 300 301 300 299 299 298 298 299 297 297 300 299 296 297 298 297 298 299 298 298 296 295 295 294 294 294 294 295 295 296 297 294 290 292 293 292
301 301 301 301 302 302 302 302 303 303 303 304 307 310 311 312 310 308 307 305 306 308 307 305 305 306 306 306 305 304 303 303 304 304 303 303 303 303 303 302 303 303 303 304 303 302 302 302 301 301 300 300 300 300 300 298 297 298 300 298 296 299 299 295 295 297 297 297 297 297 297 295 294 296 295 294 293 294 295 295 295 294 292 291 292 292 290
301 301 301 301 302 302 302 303 303 303 303 303 307 310 310 310 310 308 308 307 307 307 307 307 306 306 306 305 304 305 305 303 303 303 303 302 302 303 303 303 304 304 304 304 302 302 302 302 301 300 299 299 299 300 300 298 299 300 299 298 296 299 300 296 295 297 297 296 296 295 295 294 293 295 295 293 293 293 294 294 292 291 292 291 290 289 290
301 301 301 301 302 302 302 303 303 303 303 304 309 311 308 308 308 306 306 307 307 307 308 308 308 307 306 304 304 305 305 304 303 303 303 302 303 303 303 304 303 303 304 304 303 303 302 302 302 300 299 300 300 301 300 300 301 300 297 295 294 296 300 298 297 297 295 294 295 295 294 294 293 293 293 293 293 293 294 294 292 291 292 291 289 290 290
301 301 301 301 302 302 302 303 303 303 305 307 309 310 307 306 306 304 304 305 304 303 306 308 307 307 306 305 306 306 305 304 303 303 304 303 303 304 303 303 303 303 303 303 304 304 302 303 303 301 300 301 300 299 299 298 299 297 295 294 294 296 300 299 297 297 296 295 296 295 294 293 293 293 293 293 293 293 293 293 292 291 291 291 290 290 289
301 301 301 301 302 302 302 303 303 304 305 307 308 308 308 308 307 304 304 304 302 301 304 307 307 306 305 305 305 305 305 304 302 301 303 304 304 304 304 302 303 304 303 303 303 302 301 302 302 300 300 301 299 297 296 295 296 296 294 295 295 297 299 298 296 297 298 296 295 294 293 292 292 292 293 292 292 292 292 293 292 291 291 290 290 290 289
301 301 301 301 302 302 302 303 303 304 305 306 306 306 305 306 305 304 304 304 303 302 304 306 307 305 304 305 305 305 305 304 302 301 301 302 303 303 303 303 303 302 303 302 301 300 300 300 299 298 298 298 296 295 294 293 295 296 295 296 297 295 296 297 296 296 297 295 295 294 292 291 292 293 293 292 292 292 292 292 292 291 291 290 290 289 289
301 301 301 301 301 302 302 303 303 304 305 305 305 304 304 304 305 307 307 304 303 304 304 306 307 304 302 303 304 305 304 302 303 303 301 301 301 300 301 303 303 302 303 301 299 298 298 296 295 295 295 294 293 293 293 292 293 294 294 296 296 294 295 297 295 295 296 295 294 293 292 293 296 295 293 293 292 292 291 291 291 290 289 289 289 289 289
301 301 301 301 302 302 302 302 303 303 304 304 304 304 306 308 309 309 309 306 304 304 304 305 305 303 302 303 303 304 303 302 303 303 302 301 300 299 300 302 302 302 301 298 296 296 295 294 294 294 293 293 293 293 294 293 291 291 292 294 295 295 296 296 293 294 296 295 293 293 293 296 297 293 292 292 292 291 290 290 289 289 288 288 288 288 288
301 301 301 301 301 302 302 302 303 303 303 303 303 304 306 309 311 311 310 308 304 303 303 301 300 301 303 303 302 302 302 301 302 302 302 301 300 299 299 301 303 301 297 295 294 294 294 293 294 294 294 295 295 295 296 295 292 291 291 292 293 295 296 295 293 294 296 296 294 294 295 297 294 290 289 290 289 289 289 288 288 288 288 288 288 288 288
301 301 301 301 301 302 302 302 303 302 303 303 302 303 303 306 309 310 308 306 303 302 302 299 297 299 303 302 300 301 300 300 301 301 301 300 300 299 298 298 300 298 295 294 294 295 296 296 296 296 296 296 296 297 298 297 295 292 291 291 291 292 293 294 294 294 295 294 293 293 294 294 290 289 289 289 288 288 288 288 288 288 288 288 288 288 287
301 301 301 301 301 301 301 301 302 302 302 303 302 302 303 305 309 311 309 305 302 299 300 300 299 300 302 301 300 300 300 299 299 299 299 300 299 298 297 296 296 295 295 295 296 296 298 299 299 299 298 297 298 298 299 298 297 294 293 291 290 290 292 293 293 294 293 292 293 293 293 292 290 289 289 289 288 287 287 287 288 287 287 287 287 287 286
300 300 301 301 300 301 301 301 301 301 301 302 302 302 303 304 306 308 307 304 301 300 300 301 302 302 301 301 302 301 300 300 299 298 298 298 297 296 295 294 294 294 295 296 297 298 299 299 300 300 300 299 298 297 298 297 295 293 293 292 290 290 290 291 292 294 293 293 293 293 293 294 293 290 288 287 287 286 285 286 287 286 286 286 286 285 285
300 300 300 300 300 301 301 301 301 301 301 302 302 302 302 303 304 304 303 303 305 306 301 297 298 301 300 300 302 302 301 301 300 299 299 299 297 296 295 294 294 294 295 296 297 298 298 298 298 299 299 298 296 296 297 296 294 293 292 291 291 290 290 291 292 294 293 292 292 292 292 293 292 289 287 286 286 285 285 287 288 287 285 285 285 284 284
300 300 300 300 300 300 300 300 300 300 301 301 302 302 301 302 303 303 303 302 302 301 295 292 296 300 301 300 301 302 301 300 300 300 301 300 298 297 295 295 294 295 296 298 298 298 298 298 298 299 299 297 295 296 296 295 294 294 292 291 291 292 292 293 294 294 293 292 292 292 293 292 290 288 287 286 285 285 286 290 291 287 284 284 284 284 283
300 300 299 299 299 299 299 300 300 300 301 300 301 301 300 300 301 301 301 301 300 297 292 290 295 299 300 300 300 299 299 300 301 301 300 298 298 298 297 296 296 296 296 298 298 298 299 298 298 298 298 296 295 296 296 294 294 294 293 292 293 294 294 293 293 293 294 294 293 293 293 292 289 287 286 285 285 286 289 291 289 285 284 285 284 284 284
299 299 299 299 299 299 299 299 299 300 301 301 301 300 298 299 300 300 301 301 301 298 292 289 292 295 294 294 297 296 296 299 301 301 301 300 298 297 296 296 296 296 296 296 298 298 299 299 297 296 298 298 295 295 295 294 294 293 293 293 293 295 295 293 293 294 294 293 292 293 293 291 288 286 285 284 286 290 290 289 287 285 285 285 284 284 284
299 299 299 299 299 298 299 299 299 299 299 300 300 299 297 297 298 299 300 299 296 294 292 289 291 293 292 293 295 295 297 300 299 299 301 301 297 297 300 300 298 297 296 296 298 298 298 299 298 295 297 298 295 294 295 295 294 292 293 294 294 293 294 294 294 294 293 292 291 292 293 291 287 286 286 285 288 291 289 286 286 286 285 284 284 284 283
299 299 298 299 299 299 298 298 298 298 298 299 299 299 297 297 297 298 299 298 296 295 294 290 290 292 291 291 292 292 295 297 296 297 299 298 295 298 302 300 297 297 297 297 298 298 297 298 298 296 296 296 294 295 296 296 295 293 292 294 294 293 293 294 294 293 292 292 292 292 293 291 286 287 289 288 287 289 288 286 286 286 285 284 284 283 283
299 298 298 298 298 298 298 298 298 298 298 298 299 299 297 295 296 297 297 297 294 293 292 290 290 290 290 289 289 289 290 291 291 292 295 296 296 296 297 297 296 297 296 295 298 299 297 297 297 297 297 296 296 296 295 295 297 295 291 291 294 293 292 291 292 293 292 293 292 291 291 290 287 286 288 288 288 288 287 286 285 285 284 284 283 283 282
298 298 298 298 298 298 298 298 297 298 298 298 298 298 296 295 296 296 297 295 291 290 291 290 291 292 291 290 289 289 289 289 289 289 290 295 298 296 295 296 297 296 294 294 296 298 298 297 296 296 297 297 296 296 296 295 296 296 293 292 292 292 290 289 290 292 291 290 291 290 290 290 289 288 288 288 288 288 287 285 285 284 284 284 283 282 282
298 298 297 298 297 297 298 297 297 297 297 297 298 297 296 296 296 296 297 296 294 295 295 293 293 294 293 291 289 289 289 288 288 288 288 291 297 299 297 295 294 295 295 293 292 293 294 295 294 293 295 296 294 295 296 296 296 296 295 294 292 290 288 288 289 290 290 290 290 290 290 290 290 290 289 288 288 287 286 285 284 284 284 283 282 282 281
298 298 298 298 297 297 297 297 297 297 297 297 297 297 296 297 297 297 299 300 300 301 299 297 294 291 290 290 290 289 289 288 287 287 287 288 291 296 297 293 291 293 294 291 289 291 294 294 294 294 295 295 294 294 295 295 294 293 293 294 294 290 288 288 288 288 288 289 290 290 290 290 290 290 290 289 288 287 286 285 284 283 283 282 281 280 279
298 298 298 298 298 298 298 297 297 297 297 297 297 297 297 297 297 298 300 300 301 301 300 299 295 291 289 291 291 289 289 289 288 287 287 287 288 289 290 290 290 290 290 289 289 292 294 294 294 295 296 294 293 293 294 293 293 292 292 292 291 289 288 289 289 288 288 289 289 289 290 290 290 290 289 288 288 286 285 284 284 283 282 281 280 279 278
298 298 298 298 298 298 298 298 298 298 297 297 297 297 297 296 296 297 298 299 303 304 302 298 295 292 290 291 291 289 289 289 288 287 287 287 287 287 288 290 291 290 290 290 290 291 292 293 293 294 294 292 290 291 292 290 290 292 292 290 288 288 290 290 290 290 290 290 290 290 290 289 289 289 288 288 287 286 285 284 284 283 282 281 280 279 278
298 297 297 298 298 298 298 298 298 298 298 298 297 297 296 296 296 296 296 297 302 304 301 297 294 293 293 293 291 289 289 289 288 288 287 287 287 287 288 290 291 291 291 292 292 292 292 294 294 294 292 289 290 291 290 289 289 291 291 289 288 289 291 291 291 292 292 290 290 290 289 289 289 288 288 287 286 285 284 283 283 282 282 281 280 279 278
297 297 298 297 297 298 298 298 298 298 298 298 298 298 297 296 295 296 296 297 297 298 297 296 295 295 295 294 291 289 289 289 289 288 288 287 286 287 288 290 291 290 291 292 292 293 294 294 293 292 290 288 290 292 291 291 293 293 292 291 290 290 290 291 291 291 290 290 290 290 289 289 288 288 287 285 284 283 284 283 282 281 281 280 279 278 277
297 297 297 297 297 298 298 298 298 299 298 298 299 300 302 300 297 295 296 296 296 297 298 300 299 295 292 292 291 290 289 289 288 288 287 287 288 288 288 290 289 289 290 291 291 292 294 293 291 289 287 287 289 291 291 292 293 293 292 292 292 291 290 290 290 290 290 291 290 289 288 288 287 286 285 284 283 282 282 282 281 281 280 279 278 277 276
297 297 297 297 297 297 297 297 298 298 299 299 301 304 307 304 299 296 295 296 296 297 298 299 298 294 292 292 292 292 290 289 289 289 288 289 289 289 288 289 289 289 291 292 292 291 293 293 292 290 287 287 289 291 291 292 293 293 292 292 292 292 291 290 290 290 290 290 289 288 287 287 286 285 285 284 282 281 281 281 280 280 279 278 277 276 275
296 297 297 297 297 297 297 297 297 297 298 298 299 301 301 300 297 295 295 296 296 297 300 301 299 297 297 295 292 290 290 290 289 289 290 290 290 289 289 289 290 290 290 291 292 292 291 291 291 290 289 288 289 290 290 290 291 292 291 291 292 292 292 291 290 290 290 289 288 288 287 287 287 287 285 283 281 280 280 280 280 279 277 276 276 275 274
296 297 297 298 298 297 297 297 296 297 297 297 296 296 296 296 296 295 295 296 295 295 299 302 301 299 297 296 293 290 290 291 290 290 291 291 290 290 290 289 289 290 290 290 292 291 289 289 290 290 288 288 288 288 289 290 290 290 291 291 291 291 292 291 290 290 289 288 287 287 288 288 286 284 282 281 280 280 279 279 278 277 276 274 274 273 273
296 297 298 298 298 297 298 298 297 297 297 296 296 295 295 295 295 295 295 295 296 296 297 300 302 301 298 297 297 292 289 291 294 293 292 291 289 290 292 291 290 291 291 290 290 290 289 289 290 290 288 287 287 288 289 290 290 290 290 290 291 291 291 290 289 289 288 287 286 286 286 285 283 282 281 281 280 280 279 278 277 276 275 275 274 273 273
296 297 298 298 297 298 298 298 297 297 297 297 296 295 295 295 295 295 296 296 297 300 300 299 300 301 299 300 301 295 289 291 294 293 292 291 289 288 290 292 292 292 291 289 290 291 290 289 290 291 290 288 288 289 291 291 291 291 291 291 292 291 290 290 290 289 288 287 287 286 284 283 283 283 282 282 281 279 278 277 276 275 276 275 274 273 273
296 297 297 298 298 298 298 297 298 298 298 297 296 295 296 296 295 295 295 295 297 300 301 300 300 299 299 301 301 294 290 292 294 291 290 291 290 288 289 291 293 293 290 289 291 292 290 288 289 291 291 290 291 293 293 293 293 292 291 292 292 292 292 291 291 290 288 287 286 285 284 283 284 283 282 282 281 279 278 277 276 275 276 275 274 274 273
296 297 297 297 298 299 299 298 297 298 298 297 296 295 296 296 295 296 295 295 295 296 298 301 302 297 295 298 298 293 292 295 296 292 291 292 291 290 289 290 293 293 292 292 292 290 288 287 288 290 291 292 293 293 292 291 292 292 291 292 292 292 292 291 290 289 288 286 285 285 283 283 283 282 281 282 281 280 279 278 277 276 276 276 275 274 273
297 297 297 297 299 302 302 299 297 297 297 296 295 296 296 295 296 298 297 296 296 296 296 299 300 294 292 296 297 293 293 296 296 294 293 292 292 292 290 290 292 292 292 293 290 287 286 287 287 289 291 291 291 291 291 290 291 291 291 291 291 290 290 290 289 288 288 288 287 286 285 284 284 283 282 282 281 280 279 278 277 276 276 275 274 274 273
297 298 297 298 300 301 300 298 296 296 297 295 295 298 298 297 299 301 299 296 297 297 297 298 297 293 292 297 297 292 291 294 296 295 293 293 294 294 292 291 291 290 292 293 289 286 289 290 288 288 290 291 290 292 292 291 291 291 290 290 289 288 289 288 287 287 288 288 287 287 286 286 286 285 283 282 281 280 279 277 277 276 275 275 274 274 273
297 298 298 299 300 299 297 297 296 296 296 296 297 299 300 300 301 300 299 299 300 299 297 296 294 290 289 293 295 292 290 291 293 294 293 292 293 292 291 292 291 289 291 292 289 287 289 291 289 290 293 295 295 294 294 293 293 292 290 287 287 287 287 286 286 286 286 286 286 285 285 284 283 283 283 282 281 280 279 277 276 276 275 274 274 273 272
297 298 298 299 298 297 295 295 295 294 296 298 299 300 301 301 298 295 297 304 305 299 293 293 294 294 291 290 291 292 290 287 288 290 290 290 291 291 291 291 289 289 291 291 288 286 288 290 290 292 295 296 296 295 294 293 293 292 289 286 286 286 286 285 285 285 285 285 284 283 283 282 281 281 280 280 279 278 278 277 276 275 275 274 273 273 272
297 297 297 297 296 295 295 297 297 296 297 300 301 300 300 300 298 297 299 302 302 297 294 293 295 295 292 289 289 290 289 286 286 288 289 290 290 290 290 288 287 290 292 289 286 286 288 289 292 295 296 295 294 294 294 293 293 292 289 287 285 285 285 284 284 284 284 284 283 282 282 281 280 280 279 279 278 277 276 276 275 275 274 274 273 272 271
297 297 296 297 297 296 297 299 299 299 300 302 302 301 301 301 300 300 300 298 296 295 295 294 292 292 290 289 288 289 288 287 287 288 288 289 288 287 286 287 288 290 290 286 286 289 291 292 296 300 298 295 294 294 293 293 292 291 289 287 286 286 285 283 283 284 284 283 283 282 282 281 280 279 279 278 277 276 276 275 275 274 274 273 272 271 271
297 297 297 298 299 299 299 300 300 299 301 302 301 302 304 303 302 302 303 301 299 298 296 294 293 295 294 290 288 289 289 288 288 288 288 287 286 286 287 289 289 289 288 287 288 290 290 291 294 296 294 293 293 293 293 293 293 291 290 288 286 285 284 283 283 283 282 282 281 281 280 280 279 278 277 277 276 275 275 275 274 274 273 272 271 271 270
299 302 302 302 301 300 300 301 300 300 302 303 303 305 306 306 307 308 306 301 298 298 296 293 293 295 294 289 288 290 289 287 288 289 288 286 287 288 290 289 288 287 288 289 289 291 294 296 295 294 294 294 294 293 293 293 292 290 290 289 287 284 283 282 282 281 280 281 280 279 278 278 277 276 276 276 276 275 275 274 274 273 272 271 271 270 270
299 302 303 303 302 300 300 301 302 303 304 305 307 309 310 310 309 306 299 294 295 297 295 291 292 294 293 290 289 289 287 287 288 288 286 286 290 291 289 288 288 289 290 291 292 296 301 301 298 297 297 297 295 293 292 292 290 289 288 289 288 286 283 282 281 280 280 280 280 279 278 277 277 276 275 275 275 275 275 274 274 273 272 271 271 271 270
299 298 300 303 303 300 300 302 303 304 304 305 306 306 303 300 299 296 290 288 291 294 291 289 290 292 291 289 289 289 287 286 287 287 286 287 290 289 286 287 289 290 292 296 301 303 302 300 298 298 297 296 294 293 292 291 290 289 288 288 288 286 283 281 281 281 281 280 280 279 278 277 277 276 275 275 275 275 275 274 274 273 272 271 271 271 271
300 298 299 303 304 304 305 304 303 303 303 301 298 294 290 291 297 298 289 284 286 290 291 291 292 292 290 289 290 290 287 286 288 288 286 286 289 290 289 290 291 290 291 296 302 304 302 301 300 299 297 295 294 294 292 290 289 289 288 288 288 286 283 282 281 281 281 281 280 279 278 277 277 276 275 275 275 275 275 274 274 273 272 272 271 271 270
298 298 299 301 303 305 303 299 299 304 306 299 292 289 289 294 300 298 288 283 286 289 288 289 291 293 291 289 288 288 288 288 289 288 286 286 290 293 293 294 296 297 297 297 297 297 298 299 299 299 298 297 296 294 292 290 289 288 287 286 286 284 283 282 282 282 282 281 280 279 279 278 277 276 275 274 274 274 275 274 274 273 272 272 271 271 271
295 298 300 302 303 304 302 298 301 307 309 304 300 298 296 297 299 293 285 284 287 288 286 287 290 291 289 287 288 290 289 288 287 288 289 290 291 290 291 295 301 305 306 303 300 299 300 301 300 300 298 296 295 294 292 290 289 287 285 284 284 283 282 282 282 281 281 281 280 279 279 277 276 276 275 275 275 274 274 274 273 273 272 272 271 271 270
295 298 302 303 304 305 304 303 304 306 305 304 305 302 297 298 299 293 285 284 287 290 292 292 291 289 289 291 293 292 290 287 286 288 291 292 290 289 294 301 304 304 305 305 303 302 302 301 299 298 297 295 294 293 291 288 287 286 285 284 283 282 281 281 280 280 280 280 280 279 278 277 277 276 276 275 275 273 272 272 273 273 273 272 272 271 271
299 301 302 302 301 300 300 301 303 303 301 300 299 296 294 294 293 286 283 285 290 294 295 292 290 291 294 296 293 290 288 288 289 291 293 293 292 293 298 303 304 303 303 303 301 300 300 298 297 296 296 294 292 290 288 286 285 284 284 283 282 281 280 280 279 279 279 279 278 278 278 277 276 275 274 273 272 270 270 272 274 274 273 273 272 272 271
Wind_Speed
19 20 20 21 21 21 19 17 15 11 7 5 6 5 3 3 2 6 16 11 4 9 8 3 5 5 1 1 2 2 1 1 1 2 3 2 2 2 2 1 2 3 2 2 3 3 2 3 3 2 2 2 1 1 4 5 2 1 2 3 1 1 1 3 1 1 3 3 1 2 3 4 3 4 3 2 2 1 2 2 2 1 3 3 2 3 3
19 20 21 21 21 21 19 17 13 9 6 5 6 5 3 3 3 5 16 13 4 4 5 4 4 4 3 3 3 2 3 4 3 3 4 3 2 2 2 1 2 2 2 1 2 1 1 3 2 1 2 1 1 0 3 4 3 2 1 2 2 1 1 3 2 1 1 0 2 2 1 1 1 3 3 3 2 2 2 1 0 2 0 5 3 5 2
19 20 21 21 21 20 19 16 13 9 5 3 4 4 2 2 3 3 14 19 12 5 4 5 6 5 4 5 3 3 3 3 2 2 3 3 2 2 1 1 2 1 1 2 4 3 3 2 1 1 2 2 2 1 1 2 3 3 2 1 2 1 1 2 2 2 3 2 2 2 2 2 1 3 3 3 3 3 2 1 1 3 2 6 3 5 5
18 19 20 20 20 20 19 17 12 8 7 5 5 4 0 1 3 2 6 11 9 5 4 5 6 5 4 4 4 3 3 1 1 1 2 2 3 3 1 1 2 1 1 2 4 4 5 3 2 1 1 0 1 2 2 1 1 2 1 2 1 2 2 2 1 3 3 4 2 0 0 3 3 1 3 2 1 1 1 2 2 3 4 4 4 5 9
18 18 19 20 20 21 19 17 13 8 6 6 6 5 3 2 2 1 1 3 4 4 4 3 3 2 1 2 2 2 3 2 0 1 2 2 2 2 2 2 2 2 1 1 2 2 3 4 4 1 1 2 1 2 2 0 2 3 2 2 1 2 2 1 1 4 5 6 4 1 1 3 4 2 1 1 1 1 2 2 3 3 3 4 5 8 10
17 18 19 20 20 20 19 16 13 9 5 4 5 3 4 2 2 0 1 1 2 2 2 2 4 5 4 2 1 2 4 2 2 2 1 0 1 1 2 4 5 3 2 1 1 2 2 2 2 0 1 2 3 2 1 1 3 4 0 1 3 1 2 1 1 5 7 7 5 1 1 4 3 3 3 3 3 3 3 4 4 2 3 6 10 11 11
18 18 19 19 19 19 18 15 12 10 7 7 7 4 3 3 3 1 1 1 3 1 1 1 6 6 4 3 2 3 4 3 1 2 1 0 2 4 2 4 6 5 3 2 1 2 1 0 0 1 0 2 3 1 0 2 1 2 2 2 2 1 1 1 2 5 8 6 4 2 2 4 3 4 5 4 4 5 6 6 6 5 7 10 11 13 12
19 19 19 19 18 17 17 15 11 8 7 9 9 6 2 2 3 2 3 4 3 1 1 1 5 5 3 2 2 2 4 3 2 2 3 1 3 4 3 4 4 5 5 4 4 3 3 2 1 1 1 1 2 1 1 2 4 4 3 2 0 1 1 1 2 4 5 3 4 4 4 4 4 5 6 5 5 6 6 6 6 6 8 10 9 12 11
19 19 19 19 18 16 15 13 10 7 6 8 7 5 4 5 4 4 5 4 2 1 1 1 3 4 4 2 1 2 4 4 2 2 3 3 3 4 4 4 3 4 7 6 5 4 5 4 3 1 1 1 1 1 1 1 4 4 2 1 2 2 2 1 1 3 3 3 3 5 4 2 4 6 7 8 7 6 5 5 5 5 7 9 8 8 7
19 19 20 19 18 16 14 12 10 7 6 8 6 3 4 6 4 2 4 3 2 2 1 2 3 2 2 2 2 2 4 4 3 1 2 4 5 4 4 5 3 3 5 5 3 4 4 3 3 2 0 1 2 2 1 0 1 2 1 1 0 2 2 2 2 2 3 2 4 2 3 1 5 5 6 8 8 5 5 5 6 6 6 7 6 6 6
20 19 20 19 18 17 14 12 10 7 5 7 9 6 4 4 2 1 3 4 3 3 2 3 3 1 1 2 3 3 5 6 5 2 2 3 5 4 4 5 3 2 3 2 1 2 3 2 3 3 2 1 1 2 2 2 1 1 1 1 1 1 2 2 1 0 4 6 7 3 0 2 3 1 0 2 3 3 5 6 7 7 7 7 8 9 8
20 19 20 20 20 18 16 13 11 10 7 10 15 12 6 4 3 1 3 5 3 3 3 3 2 2 2 4 5 5 6 5 5 4 3 3 4 5 5 5 3 1 0 2 2 2 2 2 2 2 1 2 3 3 5 3 2 2 2 2 1 2 3 2 1 1 4 6 6 4 3 3 2 2 3 3 1 2 5 8 11 11 11 10 11 10 7
19 18 19 21 21 20 19 17 15 13 9 8 13 14 8 6 5 3 3 5 3 3 4 3 1 1 3 5 6 5 5 4 4 6 5 3 4 5 4 3 2 1 2 2 2 1 2 3 3 3 3 4 4 5 7 6 4 4 4 4 2 2 2 2 1 1 2 3 3 2 4 1 3 2 2 2 2 2 4 8 10 11 10 10 9 6 4
18 18 18 20 22 21 21 20 18 16 11 6 10 13 10 7 6 3 3 5 4 2 2 3 2 2 4 5 5 5 4 4 5 5 4 3 4 4 3 2 1 3 5 3 2 2 2 2 3 2 2 2 2 3 4 5 5 5 5 4 3 3 2 1 1 0 1 2 3 5 5 3 2 2 2 2 2 2 1 4 8 8 7 6 4 4 4
18 18 18 19 20 21 21 20 18 16 12 7 9 12 11 9 8 5 4 5 5 2 0 1 3 4 5 4 2 3 3 2 2 3 2 2 3 2 2 2 1 2 4 2 1 2 1 1 2 2 1 1 2 2 1 2 2 3 4 4 4 4 2 0 0 1 1 1 4 4 5 4 3 3 2 4 4 3 4 1 6 4 1 2 1 3 6
18 19 19 19 19 19 19 19 17 14 11 8 9 12 13 12 11 11 9 5 5 3 1 1 1 2 4 3 1 0 1 1 2 2 2 2 3 2 1 2 1 2 2 1 1 2 1 1 1 2 2 1 2 3 2 1 1 1 2 4 4 4 3 2 2 2 1 1 3 3 3 3 2 5 4 5 4 3 3 1 4 2 3 2 3 5 6
18 18 19 20 20 19 17 16 15 15 12 10 10 13 15 13 12 13 10 5 4 3 0 2 3 1 2 2 0 1 0 1 2 1 1 2 3 2 1 1 0 1 2 1 1 1 1 2 2 3 3 1 1 2 3 2 2 1 1 2 3 4 3 3 3 4 3 3 2 3 4 2 2 6 6 4 4 5 3 5 6 3 3 4 5 5 6
18 18 19 20 21 21 20 16 13 12 12 11 12 15 16 12 9 9 8 5 4 4 1 2 2 1 0 1 1 1 0 0 1 1 2 2 2 3 3 2 1 0 1 1 1 2 2 2 2 2 2 0 1 1 1 1 2 2 2 2 2 3 2 2 2 4 4 4 3 4 4 2 3 6 7 5 4 3 2 5 4 4 5 5 4 5 6
17 18 19 21 22 23 23 21 17 12 10 8 8 11 14 11 9 12 10 5 4 3 2 1 1 1 0 1 1 1 0 0 0 0 2 2 1 2 2 1 0 1 1 1 1 2 2 2 1 0 2 2 1 0 1 1 2 2 1 1 1 1 1 2 1 2 3 4 3 4 4 2 5 6 5 5 2 1 3 4 3 4 3 2 3 4 4
16 18 19 20 22 23 23 23 21 16 12 8 7 11 14 10 5 5 7 7 6 4 4 2 1 2 2 2 2 1 1 1 0 1 0 1 1 1 1 1 1 1 2 2 2 1 1 2 0 1 2 3 0 0 1 2 2 1 2 2 2 2 1 2 2 2 2 2 2 3 5 3 8 8 3 3 4 3 1 2 2 2 1 2 3 4 3
16 18 19 20 22 23 23 23 22 18 15 10 11 17 20 16 11 8 12 17 12 4 2 3 2 4 5 4 4 3 2 2 1 1 2 2 1 1 0 1 1 1 1 1 1 1 1 1 1 1 2 2 1 1 1 2 3 1 2 1 2 2 3 3 3 1 2 2 3 3 3 5 10 8 3 5 7 4 1 2 2 2 1 1 3 3 2
16 18 19 20 21 22 23 23 22 20 17 12 14 21 22 19 18 14 15 21 20 10 7 9 7 7 7 6 5 3 2 3 2 1 1 1 1 1 1 1 1 0 1 1 1 2 1 1 1 1 2 2 1 1 1 1 3 2 1 1 3 4 4 2 2 3 3 4 6 5 4 3 8 9 7 6 6 3 3 3 3 3 1 1 2 3 3
16 17 19 20 21 22 23 23 22 21 19 15 17 23 23 20 19 16 17 23 22 14 11 12 9 8 7 6 6 5 4 3 2 1 1 1 1 2 1 1 1 1 1 1 1 2 1 1 1 1 2 2 1 1 2 3 3 2 2 3 5 4 3 3 1 2 3 6 9 10 10 8 7 8 8 7 5 2 5 4 3 4 3 2 2 3 4
15 17 18 19 21 22 23 23 22 21 19 17 18 22 23 21 19 18 18 16 11 6 5 5 3 3 3 2 4 5 4 3 2 0 1 1 0 1 1 2 2 1 1 2 1 1 1 2 1 0 2 1 1 1 3 4 3 2 1 3 3 3 4 2 2 1 2 5 7 7 8 9 7 6 7 7 6 5 5 4 4 4 3 3 3 3 3
13 15 17 18 20 21 22 23 22 20 18 16 15 16 17 15 12 11 11 8 4 4 4 2 0 1 1 1 2 2 2 3 3 2 2 2 1 1 1 1 2 0 1 2 2 1 1 2 1 1 3 1 1 2 3 3 1 1 1 3 4 2 3 2 5 5 5 7 8 7 8 9 8 6 6 5 5 6 6 5 5 4 3 3 4 4 3
11 12 14 15 17 18 20 21 22 21 19 17 16 15 15 13 10 9 10 9 6 4 3 2 1 1 2 1 1 0 1 2 2 2 2 1 3 3 1 1 1 2 2 2 2 1 2 2 1 2 4 1 1 1 2 2 2 2 3 4 2 3 2 2 4 5 7 10 9 7 7 8 7 6 6 4 5 5 5 5 4 4 4 4 5 6 7
9 10 11 12 13 14 15 16 16 17 17 18 18 18 17 14 10 8 6 5 3 2 2 3 1 2 4 3 2 1 1 2 1 2 3 2 2 4 2 2 3 3 3 2 1 0 1 2 1 2 3 1 1 1 1 2 2 3 5 3 3 3 4 4 2 3 6 8 7 3 2 6 6 4 4 4 6 5 4 4 4 5 5 5 5 6 8
7 7 8 8 9 9 10 11 11 11 11 12 13 17 20 20 16 12 7 4 3 4 3 3 3 4 4 3 3 2 1 2 1 1 1 2 1 3 3 4 4 2 1 2 1 1 2 3 2 1 1 1 1 1 1 1 1 3 6 5 5 5 6 5 4 5 7 8 6 4 3 5 4 2 4 5 6 5 5 6 5 5 5 5 5 5 6
7 6 5 5 6 8 9 10 10 8 7 5 5 8 14 17 17 15 12 9 10 9 5 3 4 3 2 2 3 3 1 1 2 2 2 1 0 2 4 4 4 2 1 1 2 2 3 2 1 1 1 0 0 1 1 1 2 6 7 6 7 8 9 8 8 9 9 8 4 4 5 5 3 3 5 5 6 6 6 5 5 5 5 6 6 6 6
13 11 10 9 10 11 11 12 12 10 6 3 1 2 4 8 12 13 10 9 9 8 4 2 2 2 1 2 4 4 3 2 3 4 4 4 4 4 5 4 4 3 2 2 2 1 2 2 1 1 0 0 1 1 2 2 3 6 9 7 8 9 9 9 9 9 9 7 3 5 5 5 2 3 5 6 9 8 5 4 5 5 5 6 6 7 8
15 15 15 14 13 14 14 15 15 14 10 6 3 1 0 2 6 9 8 6 5 5 4 3 2 2 2 1 3 5 4 3 3 4 5 6 6 6 5 4 4 4 3 2 1 1 1 1 1 2 1 1 1 2 3 3 3 7 11 10 7 7 8 8 8 9 9 6 1 1 3 4 3 3 4 5 9 9 6 4 6 6 7 8 7 7 8
12 12 12 12 12 12 13 13 13 13 13 12 10 5 3 1 3 5 6 4 4 4 3 2 2 1 1 0 2 4 4 3 3 3 4 5 5 6 6 5 4 5 4 2 2 1 1 1 0 1 2 2 2 2 3 3 5 11 15 12 7 6 7 7 7 8 7 4 2 2 7 6 5 4 3 5 9 9 8 6 6 6 7 8 8 8 9
8 9 9 10 10 10 10 10 10 10 11 13 12 10 8 6 4 4 3 3 4 4 2 2 2 1 1 1 2 2 2 2 2 2 3 4 3 3 4 4 4 4 4 3 2 1 1 1 1 1 1 2 1 2 3 6 11 15 16 12 9 8 8 7 6 6 6 5 5 5 8 5 2 4 5 7 8 9 8 7 6 5 6 7 6 7 9
4 5 6 8 8 9 8 8 7 6 6 7 8 9 10 9 8 6 4 2 3 4 3 2 1 1 1 1 1 1 1 1 1 1 1 1 1 0 2 3 2 2 3 3 1 1 1 1 1 1 1 1 1 1 4 9 14 15 12 11 11 8 6 5 5 6 7 6 6 7 6 2 4 5 5 5 6 8 8 7 7 6 5 5 6 7 9
2 4 5 7 8 9 8 6 5 4 4 3 3 4 5 6 7 8 7 4 2 2 1 1 1 1 0 1 2 1 2 1 1 1 0 1 1 0 1 1 1 1 2 1 1 1 2 1 0 1 1 2 1 3 6 10 13 11 9 9 8 4 2 4 6 7 7 6 6 6 4 4 4 4 4 4 6 7 7 7 8 7 6 6 6 8 9
3 4 6 8 10 10 6 3 3 3 2 2 2 2 3 3 4 5 6 6 5 2 1 0 1 1 1 2 3 0 1 1 1 1 1 0 1 0 1 1 1 1 1 1 1 3 1 1 1 1 1 2 3 7 8 9 10 11 10 10 7 5 6 7 7 5 4 3 3 4 4 4 5 6 5 5 5 6 6 6 7 7 7 7 6 7 8
5 7 9 10 9 6 2 2 3 3 2 2 3 3 3 3 2 2 3 5 6 5 3 1 1 1 1 1 1 1 2 1 1 1 1 0 1 0 1 1 2 1 0 1 3 2 1 1 0 2 3 5 7 9 9 9 10 11 11 10 7 6 7 8 5 4 3 2 3 4 4 5 6 5 5 5 6 6 6 7 7 8 8 8 7 7 9
8 9 9 7 5 2 1 1 2 2 3 4 4 3 3 2 2 2 1 2 4 4 3 2 1 1 1 1 1 1 1 1 1 1 0 1 0 0 0 1 1 0 1 3 2 1 1 0 2 3 6 7 8 11 12 12 11 10 9 9 7 6 7 6 5 6 5 6 6 6 6 6 7 7 6 6 6 6 7 8 9 10 10 10 9 9 10
8 7 6 4 2 1 2 3 3 3 4 4 3 1 2 2 1 1 1 1 1 1 2 1 1 1 1 1 1 2 3 1 1 2 1 0 0 0 0 0 0 1 1 3 1 1 0 2 2 3 5 6 7 10 11 10 8 8 8 7 8 8 7 6 7 9 9 9 8 6 5 6 7 7 6 6 6 6 7 9 10 10 11 11 11 11 10
4 4 3 2 2 2 3 4 4 3 3 2 2 1 1 1 1 0 1 1 1 1 1 1 1 0 1 0 1 1 3 2 1 2 1 1 0 1 0 1 0 1 2 3 1 1 0 2 2 3 5 5 7 8 7 6 6 7 7 7 9 10 9 9 10 12 12 10 9 6 6 6 6 6 6 5 5 5 6 8 9 10 11 11 11 12 12
1 2 2 2 3 4 3 3 3 2 1 1 1 1 1 1 1 0 0 0 1 2 0 1 1 1 0 1 2 1 1 2 1 0 0 1 0 1 0 1 1 1 2 3 0 2 0 1 2 4 5 6 7 7 5 5 6 7 7 9 10 11 10 11 12 13 13 10 7 8 8 8 8 8 8 8 7 7 7 8 9 10 11 11 12 13 13
2 3 3 3 3 3 2 2 2 2 1 1 1 1 0 1 1 1 0 1 1 1 1 1 1 1 2 2 1 0 1 1 1 0 1 1 0 1 0 1 1 0 2 2 1 2 0 2 3 6 7 8 8 7 5 6 7 7 8 9 10 11 11 10 10 12 14 12 10 10 11 11 11 11 11 10 10 10 10 11 11 12 12 12 13 13 13
3 2 2 2 2 2 2 2 1 1 2 1 1 1 2 2 1 1 1 1 0 0 1 1 1 1 1 2 2 2 1 1 1 0 1 1 0 1 0 1 0 2 2 0 1 1 2 3 5 7 7 6 5 5 6 6 7 7 8 10 11 11 11 11 11 12 13 14 14 13 12 12 13 12 12 11 11 11 12 13 13 13 13 13 13 14 14
1 0 1 1 1 1 1 1 0 1 1 0 0 0 2 3 1 1 2 1 1 2 1 1 2 2 1 0 1 1 1 1 1 0 0 0 0 1 0 1 2 1 0 0 1 3 4 5 7 8 8 7 6 6 7 7 7 7 7 9 10 11 11 11 11 11 11 12 13 13 12 12 12 11 11 13 13 13 14 14 14 13 13 13 14 15 15
1 1 2 3 2 1 1 1 1 1 0 1 2 3 3 3 3 3 3 1 1 2 1 2 3 3 1 0 1 1 1 1 1 1 0 0 0 1 2 2 1 1 1 1 2 3 4 6 7 7 7 7 7 7 7 7 7 6 6 6 7 9 9 9 9 9 10 12 13 13 13 13 13 13 14 15 15 15 15 15 14 13 12 13 15 16 16
1 1 2 2 1 2 0 0 1 0 1 2 3 4 4 4 3 2 2 1 1 3 3 2 2 3 2 1 1 1 0 0 1 1 1 1 1 2 1 0 1 1 1 2 3 4 6 6 6 6 7 7 6 6 6 6 6 6 5 6 7 7 8 9 10 11 12 13 14 14 14 15 15 14 15 15 14 15 15 15 14 13 13 14 15 17 16
1 1 2 1 1 2 0 1 2 2 3 3 2 1 1 2 2 1 1 2 1 4 4 2 2 2 2 1 1 1 0 0 0 1 1 1 1 2 1 1 1 2 2 3 5 6 6 6 5 5 6 5 5 6 7 7 6 6 7 7 8 8 8 9 10 11 13 13 13 13 14 15 15 15 14 13 13 14 14 14 13 13 14 15 16 17 16
1 1 1 1 1 2 2 1 2 3 2 2 1 1 1 0 2 2 2 1 1 3 4 2 2 1 0 1 1 1 1 1 0 1 1 1 0 1 1 1 3 3 3 5 6 6 5 5 6 6 6 5 5 6 7 7 7 8 8 8 8 9 9 9 10 12 14 13 13 14 15 16 16 15 14 14 14 15 14 14 13 14 14 15 16 16 16
2 1 1 1 1 3 2 0 2 3 2 2 1 1 2 2 2 1 2 2 1 2 2 1 2 1 0 0 1 1 0 1 1 0 1 0 1 1 1 2 4 4 4 5 5 5 5 6 6 7 7 6 6 6 7 7 7 8 8 9 10 11 11 11 12 13 14 13 14 15 16 15 15 15 14 14 14 14 14 13 13 14 15 15 15 15 17
1 1 0 1 1 2 1 1 2 3 3 1 1 2 3 2 2 3 5 4 2 2 1 1 1 1 0 1 1 0 2 2 2 1 1 2 3 2 2 3 5 5 5 5 5 5 6 5 5 6 8 8 7 7 7 7 7 8 10 13 14 14 13 13 14 14 14 14 15 15 15 15 16 16 16 15 14 13 11 12 13 15 15 15 15 15 17
0 1 2 2 2 2 1 1 2 5 5 3 2 1 3 1 1 3 6 6 3 2 2 1 1 2 1 1 0 1 1 0 2 1 3 3 3 3 3 5 6 6 5 5 5 5 5 5 5 6 8 9 8 7 8 9 11 13 15 16 16 15 15 14 14 14 15 14 13 14 15 16 17 16 15 14 12 9 10 13 16 16 16 15 15 15 16
1 1 2 2 0 1 1 1 2 4 4 2 2 1 1 1 1 4 7 6 3 2 2 2 2 2 1 2 1 1 0 0 1 2 4 3 3 4 5 6 6 5 5 6 6 5 5 6 5 6 7 8 9 10 12 13 15 17 18 17 16 15 15 14 14 14 14 13 13 14 15 15 14 13 12 11 9 8 10 14 15 13 12 13 13 13 14
Wind_Direction
11 10 11 10 9 8 10 13 14 22 51 63 45 46 29 35 99 3 356 355 36 65 74 44 36 74 116 85 67 15 37 73 16 12 11 358 356 38 55 26 23 37 4 346 28 34 25 14 30 96 100 65 61 16 346 335 299 260 336 346 19 46 298 295 290 74 83 98 338 341 119 129 103 78 53 40 61 70 228 253 338 337 290 320 338 305 289
11 10 10 10 10 10 12 15 18 30 59 56 41 65 78 60 100 25 15 24 54 70 82 107 82 89 126 110 78 52 53 44 35 31 24 21 8 30 66 29 18 28 344 19 58 30 20 30 22 54 67 88 170 99 7 358 354 19 43 345 343 22 350 319 310 314 345 322 320 324 235 277 41 87 72 69 59 341 275 238 330 219 352 17 329 278 289
10 9 8 8 10 12 13 16 20 28 38 35 45 81 150 95 94 30 26 41 59 67 79 117 119 113 114 101 88 96 84 40 2 16 31 26 2 33 93 318 336 329 292 79 65 23 18 35 343 1 53 138 171 156 81 350 1 56 106 264 313 328 331 353 353 321 324 315 296 289 273 305 335 120 101 73 38 357 313 276 255 232 345 2 294 266 315
9 8 7 7 10 13 15 17 22 34 46 61 72 73 154 59 59 34 24 38 48 58 63 91 116 122 115 94 67 62 92 113 305 356 31 9 5 44 86 265 277 286 284 107 78 33 31 56 78 42 7 227 156 151 159 267 10 95 151 224 239 297 303 31 29 250 268 291 294 34 24 290 291 52 84 78 49 11 299 260 261 274 313 304 255 295 320
9 8 8 8 10 12 14 17 22 37 59 75 77 57 28 51 61 24 58 56 51 59 49 50 93 96 70 94 74 58 97 131 154 26 34 6 354 32 65 36 1 330 338 79 94 69 58 64 68 68 280 297 271 169 152 339 165 158 195 196 149 301 265 83 343 250 248 275 287 26 71 270 288 324 36 190 208 297 299 263 260 297 312 278 287 320 312
11 11 11 10 10 10 11 15 23 36 57 77 86 53 7 43 111 309 315 78 58 51 15 22 71 67 57 85 106 88 90 75 40 41 31 347 323 323 83 49 17 13 11 350 61 90 77 59 49 260 257 306 290 196 166 241 176 157 109 64 95 334 271 154 306 274 267 265 254 238 257 261 283 298 269 245 215 211 233 249 261 268 245 266 294 308 299
14 14 13 11 9 9 11 13 21 38 62 77 83 72 25 64 100 58 344 72 84 73 305 49 84 74 66 69 39 64 83 71 47 21 329 184 10 358 59 45 5 10 3 321 39 60 16 44 265 283 29 309 305 7 74 281 280 79 20 17 117 155 274 185 195 285 287 259 211 188 246 253 257 255 252 251 236 219 217 234 252 253 250 267 289 297 294
17 17 15 13 11 10 11 15 22 40 70 79 72 57 36 103 118 110 91 84 79 59 286 106 95 70 44 54 25 36 68 75 91 32 3 31 15 4 58 66 19 27 30 30 69 48 13 46 93 172 134 293 299 37 50 315 331 354 24 1 269 117 357 182 171 294 293 212 177 202 222 242 259 249 240 239 248 248 232 231 247 256 262 271 283 291 291
19 20 19 16 15 14 14 18 26 40 70 80 68 50 60 86 105 125 116 90 22 332 336 75 91 61 35 45 33 43 62 62 72 59 33 39 27 11 26 21 12 57 55 56 66 33 18 43 49 82 113 347 333 41 19 335 317 325 28 5 331 19 333 268 72 326 285 173 205 221 195 237 281 262 244 230 230 242 232 226 238 250 274 288 287 285 285
22 23 23 21 19 20 19 21 31 48 74 82 79 81 90 89 88 101 111 94 9 336 4 26 54 69 33 26 32 61 75 57 37 68 90 66 49 28 360 342 336 76 64 52 44 4 4 30 14 351 333 37 82 89 38 14 323 328 350 263 61 61 324 307 33 327 281 301 300 255 117 1 286 257 241 226 220 237 245 240 249 260 287 297 282 271 280
26 25 27 27 28 29 28 30 39 47 75 109 117 122 115 111 114 73 89 93 37 348 13 35 49 101 25 18 38 69 75 54 23 24 104 68 32 13 345 334 338 66 56 5 276 298 325 331 326 330 339 357 113 157 214 206 176 200 204 218 174 157 265 282 57 277 275 307 316 307 314 287 258 211 227 215 203 229 246 252 267 276 276 267 263 271 286
27 28 30 33 34 38 40 45 54 58 79 126 134 130 118 107 111 70 87 101 64 15 59 55 25 65 71 50 53 68 74 58 28 38 79 85 41 26 10 355 358 63 344 280 236 232 283 279 269 290 277 241 230 232 239 227 197 199 178 146 218 284 283 270 124 193 263 299 329 321 273 247 195 134 65 56 87 221 252 264 267 266 266 264 266 273 287
29 32 34 36 37 41 47 50 58 66 77 123 131 121 112 97 84 62 80 100 75 26 79 98 344 16 80 80 78 83 92 83 58 55 61 63 55 43 25 14 23 6 303 293 267 270 282 257 236 228 220 219 226 241 240 226 207 205 198 178 193 269 296 277 245 226 271 311 345 292 264 221 130 147 139 135 202 224 261 272 261 250 256 265 265 268 291
33 35 38 39 39 40 45 48 52 59 70 115 127 112 103 94 89 85 91 101 94 35 82 117 116 80 89 96 103 111 114 100 74 59 55 59 59 47 24 28 29 319 326 322 281 273 279 271 271 251 201 196 243 252 231 217 205 196 203 218 229 234 245 288 299 176 171 286 272 260 274 281 165 179 191 161 164 150 157 277 272 256 253 263 266 275 289
37 39 41 42 41 40 44 46 48 54 64 91 113 105 94 86 88 92 92 106 119 130 24 90 117 119 107 95 104 128 138 142 103 71 73 87 73 56 45 60 62 306 322 326 266 272 293 313 312 296 249 224 270 267 179 179 207 200 212 242 251 246 244 128 136 182 151 277 294 293 290 275 207 169 98 87 93 109 126 240 283 274 176 136 191 255 270
41 43 43 44 43 41 42 46 49 54 61 78 98 97 86 82 90 94 91 96 113 117 86 356 350 108 106 79 6 126 136 148 135 135 150 118 103 114 105 77 51 311 322 308 259 280 287 244 265 278 266 230 247 267 253 208 248 213 242 268 261 253 251 183 195 252 223 252 289 277 267 271 170 143 129 106 106 121 109 4 296 267 132 157 216 243 262
46 48 48 48 47 44 43 44 51 57 60 69 89 91 84 81 89 92 86 77 83 96 86 311 306 287 119 107 170 257 336 93 140 174 146 111 126 139 124 116 230 324 343 319 253 254 251 240 244 261 260 185 143 274 273 287 290 248 231 286 259 239 237 198 211 256 241 202 237 254 257 274 128 134 137 128 128 123 75 331 298 238 203 222 223 241 262
50 52 54 53 51 49 47 46 49 58 64 70 84 88 83 78 83 92 92 86 93 110 80 359 348 307 141 109 101 62 4 232 198 152 101 116 150 146 143 171 195 294 329 320 278 265 254 247 241 259 272 226 93 293 279 308 290 244 202 253 240 216 218 194 209 264 254 225 240 261 256 239 139 134 137 138 128 106 347 304 270 205 216 226 218 244 264
53 56 57 57 56 52 50 48 46 48 55 62 78 81 73 73 92 101 100 85 71 107 124 31 11 73 341 279 135 97 35 8 351 154 138 170 197 119 116 172 230 170 196 237 281 272 250 246 214 201 270 256 154 302 300 247 233 219 194 276 262 210 213 199 189 245 240 222 235 272 276 227 132 128 135 141 141 297 281 250 205 200 228 235 234 252 260
56 57 57 58 58 54 51 48 44 44 52 62 90 84 67 59 76 104 121 119 97 88 107 113 62 77 51 10 46 52 327 121 193 271 57 132 206 148 92 323 268 181 179 217 266 262 223 263 238 138 255 262 185 61 292 251 230 134 114 194 206 168 190 234 231 209 221 247 266 286 282 217 141 131 129 169 199 242 262 192 204 235 267 287 276 269 263
58 59 58 59 59 57 56 52 46 47 56 70 98 91 73 62 66 90 124 124 113 99 126 131 112 82 70 57 57 44 21 55 53 322 25 59 179 168 109 257 204 171 165 203 252 230 193 263 338 107 248 257 129 141 268 277 285 341 88 179 212 176 177 225 240 169 139 232 239 229 230 179 160 162 192 208 215 228 139 152 240 271 284 278 278 275 265
62 63 61 61 62 60 60 59 53 53 58 68 90 92 84 78 82 95 110 100 87 82 113 119 108 91 84 75 68 66 69 79 78 356 355 15 143 149 265 249 151 54 351 333 280 277 257 267 303 296 273 261 225 221 203 232 276 295 60 171 226 206 179 171 234 214 194 223 243 259 275 197 179 199 226 231 233 223 136 155 251 281 259 242 265 274 276
65 66 64 63 63 61 60 60 58 58 61 64 76 88 95 95 90 97 104 93 85 87 106 113 109 93 80 63 48 50 61 72 91 189 226 263 158 162 202 47 61 300 2 52 284 290 337 320 294 316 291 267 263 280 242 218 234 232 201 222 229 200 136 100 148 250 265 262 255 260 272 266 228 219 228 234 235 191 140 163 227 245 236 228 233 252 262
69 68 67 65 64 61 59 59 57 58 61 62 68 83 97 100 95 95 98 96 96 97 95 103 110 86 74 44 35 48 50 33 3 218 171 165 120 137 112 48 8 281 75 59 303 272 324 297 272 299 274 248 137 265 259 248 238 196 187 248 241 163 120 132 216 233 298 269 243 233 250 260 250 234 229 222 212 188 168 184 214 227 232 234 238 256 265
69 69 70 69 67 65 63 61 59 58 60 62 68 80 89 91 91 91 86 90 122 127 98 93 99 66 77 34 37 55 40 4 359 36 114 165 173 156 148 10 352 254 52 346 313 262 251 262 235 225 251 256 120 209 233 246 252 153 188 246 242 166 116 193 229 220 229 250 255 259 266 264 254 245 243 224 198 185 179 187 207 224 227 225 229 237 242
66 69 72 72 70 68 66 65 63 61 60 61 65 72 76 76 78 83 87 94 102 98 93 105 149 197 178 142 110 154 336 337 357 50 62 139 159 158 171 340 320 211 232 286 295 277 257 263 258 237 238 248 50 227 244 291 298 267 245 240 181 118 135 202 226 236 254 264 267 277 289 280 260 247 242 210 169 165 173 182 201 218 225 227 229 223 219
62 68 74 76 73 69 65 60 56 54 53 55 59 63 68 68 65 68 82 97 91 69 91 108 125 195 183 168 183 228 293 310 341 53 32 24 124 149 187 285 270 227 221 232 220 103 256 240 230 230 230 292 2 231 237 304 316 275 257 236 127 137 209 217 216 250 264 262 247 217 271 285 271 240 215 175 144 148 179 202 215 227 227 224 229 231 227
57 64 72 74 66 54 44 36 30 29 33 41 51 59 61 60 57 56 58 75 98 95 96 109 124 153 168 182 214 226 253 284 272 118 325 336 73 147 195 256 270 255 245 247 235 218 237 233 224 209 194 27 342 246 236 11 2 264 253 217 170 202 220 194 190 232 249 255 241 186 196 265 271 189 174 166 145 156 197 216 222 231 231 223 224 235 236
62 60 58 50 33 23 18 11 7 7 8 12 33 56 59 56 53 54 59 76 94 97 95 101 117 132 151 177 195 205 234 268 243 222 229 268 56 178 201 230 254 262 280 266 253 256 252 233 165 131 172 130 249 259 279 263 236 255 255 215 191 213 222 210 219 243 257 265 254 171 190 250 263 158 170 178 168 175 201 218 219 225 230 226 227 235 238
72 69 65 57 47 41 36 29 22 18 18 31 49 62 58 47 41 43 53 72 89 98 106 106 118 152 157 145 176 200 217 230 233 231 224 221 227 222 210 219 236 241 243 238 227 257 284 268 138 105 30 232 227 263 275 262 253 267 269 247 217 222 231 228 230 241 252 253 208 157 200 248 253 158 177 186 183 185 198 219 219 219 220 218 222 234 239
76 73 70 65 58 52 47 42 35 29 32 51 67 61 85 25 14 25 42 62 79 90 94 82 92 160 177 144 176 194 198 214 232 235 231 230 230 223 216 221 222 208 212 243 237 183 270 266 172 139 139 173 200 256 268 272 278 276 274 267 241 226 234 236 234 242 251 251 149 115 254 253 221 215 225 197 184 184 189 208 219 220 222 222 225 232 238
79 72 65 58 50 44 41 40 36 31 38 55 67 75 95 87 349 10 33 54 73 87 93 83 82 211 241 184 164 181 192 216 235 235 230 221 209 203 209 220 220 207 207 255 300 246 237 301 176 161 150 144 156 257 270 253 250 260 267 273 269 248 243 243 242 247 245 214 145 290 283 263 220 218 208 164 167 179 191 211 225 222 216 220 230 238 241
77 64 54 42 34 30 29 30 28 27 40 58 68 72 68 55 27 11 17 40 66 71 78 93 88 279 241 150 142 175 199 217 226 224 216 197 176 178 197 202 212 217 203 198 244 246 160 101 183 187 137 121 155 268 268 242 242 253 264 275 281 269 255 247 248 255 247 199 177 230 264 263 189 152 142 147 168 190 203 213 217 207 201 206 220 234 239
74 49 35 26 23 19 12 10 11 13 30 52 63 64 61 55 49 43 35 53 81 69 62 81 88 286 264 109 115 178 175 219 236 208 206 194 165 200 223 193 186 208 195 191 252 273 191 176 211 208 161 134 164 246 259 252 252 257 265 272 272 264 257 261 264 258 248 223 206 227 245 209 135 142 152 171 195 204 203 202 200 200 210 218 223 230 233
36 14 7 1 358 354 350 352 359 4 21 48 55 48 45 43 42 40 38 44 69 61 37 49 47 42 48 332 298 222 177 236 250 156 185 210 176 235 302 261 195 217 195 167 295 246 201 158 51 215 179 137 166 227 242 253 261 265 267 267 261 236 208 256 261 250 238 219 212 225 215 159 164 202 215 211 206 194 189 197 200 202 222 242 241 234 232
312 331 335 336 336 336 337 356 11 7 21 51 24 358 353 351 4 23 35 45 57 71 127 152 75 102 148 275 288 285 109 277 229 154 148 225 178 203 324 293 240 236 116 104 250 245 219 69 48 235 192 162 215 230 231 243 261 268 269 267 252 207 209 243 249 231 207 185 186 208 199 185 210 234 234 227 215 191 186 203 207 207 229 248 246 237 236
308 320 324 327 332 336 347 23 18 13 11 338 321 322 328 331 341 12 34 38 43 53 77 126 156 122 131 234 282 7 13 308 233 140 135 270 267 235 202 227 263 288 62 237 238 220 81 62 199 235 230 223 236 249 251 254 262 265 268 271 262 232 236 249 229 171 174 218 234 234 226 224 234 236 229 235 229 201 197 214 216 215 231 243 242 240 242
311 321 327 334 345 4 13 346 347 351 339 325 320 324 334 343 17 55 35 13 20 32 46 72 124 128 129 207 284 356 18 317 318 344 190 183 322 348 167 209 257 22 288 263 235 133 74 274 218 240 255 254 258 264 263 259 260 261 261 266 266 256 252 242 192 172 207 252 255 237 223 231 242 236 224 226 225 211 213 224 224 222 229 238 243 247 246
314 324 333 346 3 332 307 322 328 325 323 325 331 348 352 3 24 6 319 334 7 10 13 44 104 139 160 203 264 16 51 80 265 288 313 95 90 13 248 262 62 59 313 277 249 96 335 252 216 249 271 269 262 259 255 251 254 259 257 254 256 256 252 232 203 201 218 242 253 236 209 213 225 220 210 210 213 213 218 221 222 225 231 239 245 246 243
322 334 336 338 328 307 308 321 326 322 322 340 13 26 9 15 27 322 301 354 12 287 305 51 98 61 46 149 229 337 47 68 211 249 315 343 174 132 13 294 52 61 291 270 258 76 318 252 246 261 262 253 249 251 250 245 248 254 253 248 250 251 246 237 231 228 231 244 254 240 210 201 201 196 195 201 206 213 221 223 224 230 234 239 244 244 244
348 344 320 312 315 314 315 326 341 353 7 23 23 24 15 332 324 341 66 3 296 272 254 104 152 234 314 131 211 247 28 50 78 168 274 288 170 107 282 282 52 71 258 251 217 69 16 264 264 254 247 250 255 254 248 250 258 261 254 243 242 244 243 243 244 240 236 239 242 230 218 214 209 205 205 208 210 217 226 229 231 233 234 238 246 250 252
286 291 297 302 305 311 322 338 357 21 45 43 11 7 329 260 307 344 239 220 259 260 200 140 161 199 170 142 148 164 41 53 57 99 233 275 6 101 188 312 38 314 246 239 90 75 246 260 261 253 251 257 261 257 252 255 261 264 254 239 234 235 238 242 248 246 238 232 231 228 221 216 215 216 217 218 220 226 231 234 236 239 241 246 252 255 255
284 291 310 318 317 343 3 354 2 63 59 44 26 351 318 323 14 9 276 270 209 196 199 152 127 125 130 122 102 75 80 96 80 115 196 252 315 68 45 351 246 217 227 79 78 192 228 235 243 249 257 266 265 259 261 264 263 264 259 247 240 240 241 241 247 252 247 239 235 233 226 219 220 224 225 223 225 230 237 242 245 247 249 253 256 256 257
307 5 45 30 11 19 19 341 338 78 55 347 148 148 311 319 324 203 237 254 202 199 201 138 141 177 210 176 81 77 92 104 87 106 199 234 54 92 144 239 237 222 164 54 214 231 240 242 243 253 270 284 282 274 275 274 267 263 263 256 246 241 242 246 249 252 250 242 236 233 228 224 224 225 226 227 229 234 242 250 253 252 251 253 256 258 260
14 10 37 27 352 338 20 350 338 25 192 227 188 168 197 246 238 216 225 252 153 154 138 114 132 154 185 314 102 123 127 115 130 177 200 26 13 225 218 233 264 8 19 272 257 260 260 253 251 257 265 266 264 266 272 274 266 258 265 271 255 236 231 239 244 244 244 241 236 230 227 226 225 225 228 234 238 240 245 251 254 252 249 250 254 261 264
98 80 71 64 314 304 18 36 308 288 190 212 209 191 200 229 241 228 248 313 105 136 140 130 131 142 155 172 142 129 95 123 178 193 109 88 250 248 229 99 23 13 286 262 257 250 246 250 258 263 257 253 258 269 277 280 275 261 257 271 271 254 241 242 244 246 248 246 239 232 228 228 227 228 232 239 243 245 249 253 254 250 246 246 252 262 268
100 66 70 89 317 317 281 199 241 239 206 207 219 198 203 262 285 268 280 317 83 122 119 83 70 122 155 149 136 149 141 107 222 240 149 145 234 269 20 58 233 221 213 234 243 243 245 256 267 268 262 263 279 290 291 290 286 271 261 265 273 273 263 254 249 251 252 248 239 233 230 229 229 229 231 236 242 246 252 258 258 253 249 250 256 265 269
119 78 95 136 204 237 218 223 299 289 230 192 140 100 129 250 285 248 228 249 106 118 122 111 95 100 70 59 110 144 128 78 264 253 163 123 249 306 358 309 261 240 209 217 233 242 251 261 273 284 288 287 289 292 294 293 289 284 279 275 273 275 272 264 258 260 258 249 237 234 233 231 229 229 229 233 242 248 253 258 260 258 256 256 260 265 267
120 105 118 146 217 230 207 122 342 304 248 155 123 173 185 216 258 209 162 151 128 127 137 137 130 141 201 355 75 96 176 193 199 253 23 90 229 226 197 239 263 258 234 223 231 247 258 267 285 300 302 298 292 289 287 284 282 281 280 278 277 278 277 273 270 272 268 254 242 240 239 233 228 227 226 230 241 250 255 257 258 259 259 259 261 265 269
103 95 199 192 224 247 228 76 340 287 263 215 195 197 189 213 244 186 156 150 142 120 104 52 77 129 148 26 47 332 249 220 159 128 200 221 214 195 195 225 238 238 231 226 231 245 260 279 304 311 306 302 299 292 287 284 282 280 281 283 284 283 281 278 278 279 276 265 253 248 242 232 227 225 225 230 240 249 254 256 255 257 261 264 265 267 270
54 286 256 224 207 216 208 157 278 273 274 290 298 201 168 172 243 175 160 154 141 126 142 174 95 80 66 25 186 216 243 168 116 162 233 229 190 160 195 229 234 234 243 254 260 268 286 306 316 312 307 305 302 294 290 289 289 288 289 291 290 287 285 284 282 280 279 274 263 251 241 237 234 232 232 236 242 247 253 258 260 261 265 267 267 267 270
171 241 272 272 192 153 182 213 255 263 267 306 20 54 128 34 80 155 158 159 161 170 174 152 108 102 157 237 220 162 90 72 208 236 247 238 196 185 207 229 239 247 269 289 297 300 304 305 298 289 289 293 296 298 299 298 295 294 295 296 294 290 287 286 284 283 282 277 265 253 246 243 239 233 228 228 228 229 245 260 266 267 269 272 273 274 276